Search for airport 
image banner adimage banner adimage banner ad
image banner ad

CYWY - Wrigley

Located in Wrigley, Canada

ICAO - CYWY, IATA - YWY

Data provided by Airmate  

General information

Coordinates: N63°12'35" W123°26'12"
Elevation is 491 feet MSL.
Magnetic variation is 19.7617° East
View others Airports in Northwest Territories

Operational data

Special qualification required
Current time UTC:
Current local time:
Weather
METAR: CYWY 062300Z 11004KT 25SM SCT150 SCT180 BKN220 BKN260 M28/M32 A2981 RMK AC3AC1CS3CC1 AC TR CC TR LAST STFD OBS/NXT 071500Z SLP122
View NOTAMs / SUP AIP / TFR affecting this airport [VIEW]
Communications frequencies: [VIEW]

Runways:

RWY identifierQFULength (ft)Width (ft)SurfaceLDA (ft)
11133°350098GRAVE3005
29313°350098GRAVE3500

Airport contact information

Address: Wrigley Canada

Satellite view of CYWY